Location: Newark
(52.3735°N, 16.9806°E)
Time: 20:04:09
(UTC+00:00)

X-37B - Visible Passes

Search period start: 26 September 2021 00:00
Search period end: 06 October 2021 00:00
Orbit: 381 x 393 km, 45.0° (Epoch: 29 August)

Date Brightness Start Highest point End Pass type
(mag) Time Alt. Az. Time Alt. Az. Time Alt. Az.
26 Sep 2.8 02:44:46 15° SSE 02:44:46 15° SSE 02:46:41 10° SE visible
27 Sep 2.4 03:21:20 17° SSW 03:22:30 21° S 03:24:58 10° ESE visible
28 Sep 3.1 02:25:37 15° SE 02:25:37 15° SE 02:26:39 10° ESE visible
28 Sep 2.4 03:57:54 10° WSW 04:00:21 20° S 04:02:48 10° SE visible
29 Sep 2.2 03:02:12 22° S 03:02:12 22° S 03:04:40 10° SE visible
30 Sep 2.5 03:38:49 15° SW 03:40:00 18° SSW 03:42:13 10° SSE visible
01 Oct 2.9 02:43:12 16° SSE 02:43:12 16° SSE 02:44:15 10° SE visible
01 Oct 3.0 04:16:59 10° SW 04:17:42 11° SSW 04:18:25 10° SSW visible
02 Oct 2.8 03:19:58 14° S 03:19:58 14° S 03:21:23 10° SSE visible
